• In Hungary
  • List of Countries
  • For 7 days
  • Water Temperature
  • Satellite Maps
  • Weather Map
  • News
  • Weather Widgets
  • user-avatar
    Login

    Hourly Weather Maskat

    Today, 20 September, Thursday

    Time Temperature Precipitation Wind Pressure Humidity
    00:00 +34°C° 0 mm 1 mps 749 mmHg 33%
    01:00 +34°C° 0 mm 1 mps 748 mmHg 33%
    02:00 +33°C° 0 mm 1 mps 748 mmHg 34%
    03:00 +33°C° 0 mm 1 mps 748 mmHg 34%
    04:00 +33°C° 0 mm 1 mps 748 mmHg 35%
    05:00 +33°C° 0 mm 1 mps 749 mmHg 34%
    06:00 +34°C° 0 mm 1 mps 749 mmHg 32%
    07:00 +34°C° 0 mm 1 mps 749 mmHg 31%
    08:00 +37°C° 0 mm 2 mps 749 mmHg 29%
    09:00 +38°C° 0 mm 2 mps 749 mmHg 27%
    10:00 +39°C° 0 mm 2 mps 749 mmHg 26%
    11:00 +40°C° 0 mm 3 mps 749 mmHg 27%
    12:00 +40°C° 0 mm 3 mps 749 mmHg 28%
    13:00 +42°C° 0 mm 3 mps 749 mmHg 29%
    14:00 +40°C° 0 mm 3 mps 748 mmHg 30%
    15:00 +40°C° 0 mm 3 mps 748 mmHg 32%
    16:00 +39°C° 0 mm 2 mps 748 mmHg 33%
    17:00 +38°C° 0 mm 2 mps 748 mmHg 36%
    18:00 +37°C° 0 mm 2 mps 748 mmHg 38%
    19:00 +37°C° 0 mm 2 mps 748 mmHg 41%
    20:00 +36°C° 0 mm 2 mps 748 mmHg 39%
    21:00 +35°C° 0 mm 1 mps 748 mmHg 38%
    22:00 +35°C° 0 mm 1 mps 748 mmHg 37%
    23:00 +34°C° 0 mm 1 mps 748 mmHg 39%

    Tomorrow, 21 September, Friday

    Time Temperature Precipitation Wind Pressure Humidity
    00:00 +35°C° 0 mm 2 mps 748 mmHg 40%
    01:00 +34°C° 0 mm 2 mps 748 mmHg 42%
    02:00 +32°C° 0 mm 2 mps 748 mmHg 42%
    03:00 +32°C° 0 mm 2 mps 748 mmHg 42%
    04:00 +32°C° 0 mm 2 mps 748 mmHg 42%
    05:00 +32°C° 0 mm 1 mps 749 mmHg 39%
    06:00 +33°C° 0 mm 1 mps 749 mmHg 37%
    07:00 +33°C° 0 mm 1 mps 749 mmHg 34%
    08:00 +35°C° 0 mm 1 mps 750 mmHg 31%
    09:00 +37°C° 0 mm 2 mps 750 mmHg 28%
    10:00 +39°C° 0 mm 2 mps 750 mmHg 25%
    11:00 +39°C° 0 mm 3 mps 750 mmHg 25%
    12:00 +40°C° 0 mm 3 mps 750 mmHg 24%
    13:00 +42°C° 0 mm 3 mps 749 mmHg 24%
    14:00 +40°C° 0 mm 3 mps 749 mmHg 25%
    15:00 +40°C° 0 mm 3 mps 749 mmHg 25%
    16:00 +40°C° 0 mm 3 mps 748 mmHg 26%
    17:00 +39°C° 0 mm 3 mps 749 mmHg 28%
    18:00 +38°C° 0 mm 2 mps 749 mmHg 31%
    19:00 +37°C° 0 mm 2 mps 749 mmHg 34%
    20:00 +37°C° 0 mm 2 mps 749 mmHg 32%
    21:00 +36°C° 0 mm 2 mps 749 mmHg 30%
    22:00 +36°C° 0 mm 2 mps 750 mmHg 28%
    23:00 +36°C° 0 mm 2 mps 750 mmHg 29%

    Day after tomorrow, 22 September, Saturday

    Time Temperature Precipitation Wind Pressure Humidity
    00:00 +35°C° 0 mm 2 mps 750 mmHg 30%
    01:00 +35°C° 0 mm 2 mps 750 mmHg 31%
    02:00 +34°C° 0 mm 2 mps 750 mmHg 33%
    03:00 +32°C° 0 mm 2 mps 750 mmHg 35%
    04:00 +33°C° 0 mm 3 mps 749 mmHg 37%
    05:00 +33°C° 0 mm 3 mps 750 mmHg 35%
    06:00 +34°C° 0 mm 2 mps 750 mmHg 34%
    07:00 +35°C° 0 mm 2 mps 750 mmHg 32%
    08:00 +36°C° 0 mm 3 mps 751 mmHg 27%
    09:00 +38°C° 0 mm 3 mps 751 mmHg 23%
    10:00 +40°C° 0 mm 3 mps 751 mmHg 18%
    11:00 +42°C° 0 mm 3 mps 751 mmHg 17%
    12:00 +42°C° 0 mm 4 mps 751 mmHg 16%
    13:00 +43°C° 0 mm 4 mps 750 mmHg 15%
    14:00 +43°C° 0 mm 4 mps 750 mmHg 16%
    15:00 +42°C° 0 mm 4 mps 750 mmHg 16%
    16:00 +42°C° 0 mm 4 mps 749 mmHg 16%
    17:00 +41°C° 0 mm 4 mps 749 mmHg 17%
    18:00 +39°C° 0 mm 3 mps 750 mmHg 19%
    19:00 +38°C° 0 mm 3 mps 750 mmHg 20%
    20:00 +37°C° 0 mm 3 mps 750 mmHg 19%
    21:00 +37°C° 0 mm 3 mps 750 mmHg 19%
    22:00 +36°C° 0 mm 3 mps 751 mmHg 18%
    23:00 +36°C° 0 mm 2 mps 750 mmHg 19%

    23 September, Sunday

    Time Temperature Precipitation Wind Pressure Humidity
    00:00 +35°C° 0 mm 2 mps 750 mmHg 19%
    01:00 +34°C° 0 mm 1 mps 750 mmHg 20%
    02:00 +33°C° 0 mm 1 mps 750 mmHg 22%
    03:00 +32°C° 0 mm 1 mps 750 mmHg 24%
    04:00 +31°C° 0 mm 2 mps 750 mmHg 25%
    05:00 +32°C° 0 mm 2 mps 750 mmHg 24%
    06:00 +34°C° 0 mm 2 mps 751 mmHg 24%
    07:00 +35°C° 0 mm 2 mps 751 mmHg 23%
    08:00 +37°C° 0 mm 2 mps 751 mmHg 19%
    09:00 +39°C° 0 mm 2 mps 752 mmHg 16%
    10:00 +40°C° 0 mm 2 mps 752 mmHg 13%
    11:00 +41°C° 0 mm 2 mps 751 mmHg 12%
    12:00 +43°C° 0 mm 3 mps 751 mmHg 11%
    13:00 +44°C° 0 mm 3 mps 750 mmHg 10%
    14:00 +44°C° 0 mm 3 mps 750 mmHg 10%
    15:00 +43°C° 0 mm 3 mps 749 mmHg 11%
    16:00 +43°C° 0 mm 3 mps 749 mmHg 12%
    17:00 +40°C° 0 mm 3 mps 749 mmHg 14%
    18:00 +39°C° 0 mm 3 mps 749 mmHg 16%
    19:00 +38°C° 0 mm 3 mps 750 mmHg 18%
    20:00 +38°C° 0 mm 3 mps 750 mmHg 18%
    21:00 +38°C° 0 mm 3 mps 750 mmHg 18%
    22:00 +38°C° 0 mm 3 mps 750 mmHg 19%
    23:00 +37°C° 0 mm 3 mps 750 mmHg 22%

    24 September, Monday

    Time Temperature Precipitation Wind Pressure Humidity
    00:00 +36°C° 0 mm 2 mps 750 mmHg 25%
    01:00 +36°C° 0 mm 2 mps 749 mmHg 29%
    02:00 +35°C° 0 mm 2 mps 749 mmHg 31%
    03:00 +34°C° 0 mm 2 mps 749 mmHg 34%
    04:00 +34°C° 0 mm 2 mps 749 mmHg 37%
    05:00 +34°C° 0 mm 2 mps 749 mmHg 37%
    06:00 +35°C° 0 mm 2 mps 750 mmHg 36%
    07:00 +35°C° 0 mm 2 mps 750 mmHg 36%
    08:00 +37°C° 0 mm 2 mps 750 mmHg 30%
    09:00 +39°C° 0 mm 1 mps 751 mmHg 24%
    10:00 +41°C° 0 mm 1 mps 751 mmHg 18%
    11:00 +42°C° 0 mm 2 mps 750 mmHg 18%
    12:00 +42°C° 0 mm 2 mps 750 mmHg 17%
    13:00 +44°C° 0 mm 3 mps 749 mmHg 16%
    14:00 +43°C° 0 mm 3 mps 749 mmHg 17%
    15:00 +41°C° 0 mm 2 mps 749 mmHg 18%
    16:00 +41°C° 0 mm 2 mps 748 mmHg 19%
    17:00 +40°C° 0 mm 2 mps 748 mmHg 21%
    18:00 +39°C° 0 mm 2 mps 749 mmHg 22%
    19:00 +38°C° 0 mm 2 mps 749 mmHg 24%
    20:00 +37°C° 0 mm 2 mps 749 mmHg 23%
    21:00 +37°C° 0 mm 2 mps 749 mmHg 23%
    22:00 +37°C° 0 mm 2 mps 749 mmHg 23%
    23:00 +37°C° 0 mm 2 mps 749 mmHg 23%

    25 September, Tuesday

    Time Temperature Precipitation Wind Pressure Humidity
    00:00 +36°C° 0 mm 2 mps 749 mmHg 24%
    01:00 +35°C° 0 mm 1 mps 748 mmHg 24%
    02:00 +35°C° 0 mm 2 mps 748 mmHg 27%
    03:00 +35°C° 0 mm 2 mps 748 mmHg 29%
    04:00 +34°C° 0 mm 2 mps 748 mmHg 32%
    05:00 +34°C° 0 mm 2 mps 749 mmHg 34%
    06:00 +34°C° 0 mm 2 mps 749 mmHg 36%
    07:00 +34°C° 0 mm 3 mps 750 mmHg 38%
    08:00 +36°C° 0 mm 2 mps 750 mmHg 32%
    09:00 +39°C° 0 mm 1 mps 750 mmHg 25%
    10:00 +41°C° 0 mm 1 mps 751 mmHg 19%
    11:00 +42°C° 0 mm 1 mps 750 mmHg 18%
    12:00 +43°C° 0 mm 2 mps 749 mmHg 16%
    13:00 +45°C° 0 mm 3 mps 749 mmHg 15%
    14:00 +44°C° 0 mm 3 mps 748 mmHg 16%
    15:00 +44°C° 0 mm 3 mps 748 mmHg 16%
    16:00 +43°C° 0 mm 3 mps 748 mmHg 17%
    17:00 +42°C° 0 mm 3 mps 748 mmHg 19%
    18:00 +40°C° 0 mm 3 mps 748 mmHg 21%
    19:00 +39°C° 0 mm 3 mps 748 mmHg 23%
    20:00 +38°C° 0 mm 3 mps 748 mmHg 22%
    21:00 +38°C° 0 mm 3 mps 749 mmHg 22%
    22:00 +38°C° 0 mm 3 mps 749 mmHg 22%
    23:00 +37°C° 0 mm 3 mps 749 mmHg 23%
    Show more